SBI160 UWWW-UNAA

Flight info

Callsign SBI160
Flight time 3h 18m
Altitude 35000
Route PIRIK2Z PIRIK P135 BUGOT L749 BASAB T762 ABALI/K0828F370 L158 OKETI R234 ABESA L158 GIMUK DCT NOSPI DCT PEMOD DCT SUBOM DCT LOGRU DCT UNENA DCT KERAL KERAL1E
Aircraft A320/M-SDE3FGHIRWY/LB1

Departure

Time 2026-05-08 11:02
Airport Kurumoch International Airport (UWWW)

Arrival

Time 2026-05-08 14:20
Airport Abakan International Airport (UNAA)
Time Latitude Longitude Altitude Speed Heading
2026-05-08 10:25 53.51176 50.15932 447 ft 0 kts 332°
2026-05-08 10:49 53.51172 50.15936 447 ft 3 kts 332°
2026-05-08 10:49 53.51148 50.15958 447 ft 4 kts 332°
2026-05-08 10:49 53.51124 50.15977 447 ft 3 kts 344°
2026-05-08 10:50 53.51101 50.15979 447 ft 3 kts 51°
2026-05-08 10:50 53.51098 50.15974 447 ft 0 kts 62°
2026-05-08 10:54 53.51113 50.16020 447 ft 11 kts 61°
2026-05-08 10:54 53.51151 50.16154 447 ft 12 kts 84°
2026-05-08 10:55 53.51120 50.16273 447 ft 10 kts 120°
2026-05-08 10:55 53.51085 50.16367 447 ft 10 kts 121°
2026-05-08 10:55 53.51057 50.16447 447 ft 6 kts 121°
2026-05-08 10:55 53.51038 50.16499 447 ft 5 kts 121°
2026-05-08 10:56 53.51017 50.16557 447 ft 8 kts 121°
2026-05-08 10:56 53.50973 50.16677 447 ft 13 kts 122°
2026-05-08 10:56 53.50927 50.16800 446 ft 15 kts 121°
2026-05-08 10:56 53.50869 50.16959 443 ft 11 kts 122°
2026-05-08 10:57 53.50818 50.17039 446 ft 12 kts 156°
2026-05-08 10:57 53.50714 50.17103 447 ft 20 kts 161°
2026-05-08 10:57 53.50413 50.17283 447 ft 24 kts 160°
2026-05-08 10:58 53.50253 50.17380 447 ft 25 kts 160°
2026-05-08 10:58 53.50095 50.17473 446 ft 24 kts 160°
2026-05-08 10:58 53.49933 50.17569 446 ft 25 kts 159°
2026-05-08 10:58 53.49790 50.17657 446 ft 21 kts 161°
2026-05-08 10:59 53.49649 50.17740 447 ft 22 kts 160°
2026-05-08 10:59 53.49505 50.17827 446 ft 23 kts 160°
2026-05-08 10:59 53.49377 50.17903 447 ft 14 kts 161°
2026-05-08 10:59 53.49300 50.17979 446 ft 12 kts 130°
2026-05-08 11:00 53.49275 50.18094 446 ft 10 kts 93°
2026-05-08 11:00 53.49290 50.18199 431 ft 11 kts 68°
2026-05-08 11:00 53.49350 50.18315 442 ft 13 kts 19°
2026-05-08 11:00 53.49406 50.18306 435 ft 6 kts 341°
2026-05-08 11:01 53.49408 50.18305 443 ft 1 kts 341°
2026-05-08 11:01 53.49530 50.18233 439 ft 50 kts 340°
2026-05-08 11:01 53.50077 50.17902 438 ft 114 kts 340°
2026-05-08 11:01 53.50986 50.17371 448 ft 162 kts 341°
2026-05-08 11:02 53.52094 50.16729 891 ft 171 kts 341°
2026-05-08 11:02 53.54385 50.15397 2045 ft 188 kts 343°
2026-05-08 11:02 53.55685 50.14646 2299 ft 212 kts 343°
2026-05-08 11:03 53.57152 50.13769 2551 ft 236 kts 343°
2026-05-08 11:03 53.58772 50.12809 2904 ft 256 kts 343°
2026-05-08 11:03 53.60449 50.11836 3730 ft 255 kts 349°
2026-05-08 11:03 53.62214 50.11683 4542 ft 256 kts
2026-05-08 11:04 53.63995 50.11934 5383 ft 258 kts
2026-05-08 11:04 53.65793 50.12211 6195 ft 260 kts
2026-05-08 11:04 53.67564 50.12487 6931 ft 264 kts
2026-05-08 11:04 53.69403 50.12771 7680 ft 267 kts
2026-05-08 11:05 53.71266 50.13059 8458 ft 270 kts
2026-05-08 11:05 53.73155 50.13353 8832 ft 274 kts
2026-05-08 11:05 53.75055 50.13649 8918 ft 274 kts
2026-05-08 11:05 53.76886 50.14428 8919 ft 273 kts 28°
2026-05-08 11:06 53.78280 50.16562 8920 ft 275 kts 56°
2026-05-08 11:06 53.78882 50.19562 8925 ft 279 kts 83°
2026-05-08 11:06 53.78956 50.22864 8911 ft 282 kts 86°
2026-05-08 11:06 53.79001 50.26189 8914 ft 283 kts 86°
2026-05-08 11:07 53.79042 50.29518 8916 ft 283 kts 86°
2026-05-08 11:07 53.79086 50.32846 8928 ft 283 kts 86°
2026-05-08 11:07 53.79132 50.36166 9487 ft 286 kts 86°
2026-05-08 11:07 53.79182 50.39552 10169 ft 294 kts 86°
2026-05-08 11:08 53.79219 50.41902 10300 ft 310 kts 86°
2026-05-08 11:08 53.79235 50.42934 10359 ft 316 kts 86°
2026-05-08 11:08 53.79242 50.46797 10395 ft 340 kts 87°
2026-05-08 11:08 53.79302 50.50877 10829 ft 351 kts 86°
2026-05-08 11:09 53.79398 50.55042 11476 ft 355 kts 82°
2026-05-08 11:09 53.79867 50.59140 12158 ft 356 kts 71°
2026-05-08 11:09 53.80772 50.63045 12824 ft 358 kts 64°
2026-05-08 11:09 53.81753 50.66768 13474 ft 361 kts 65°
2026-05-08 11:10 53.82761 50.70631 14063 ft 364 kts 65°
2026-05-08 11:10 53.83781 50.74575 14634 ft 367 kts 65°
2026-05-08 11:10 53.84811 50.78565 15213 ft 370 kts 65°
2026-05-08 11:10 53.85848 50.82590 15785 ft 373 kts 65°
2026-05-08 11:11 53.86890 50.86643 16354 ft 377 kts 65°
2026-05-08 11:11 53.87941 50.90732 16924 ft 380 kts 65°
2026-05-08 11:11 53.88963 50.94728 17463 ft 383 kts 65°
2026-05-08 11:11 53.90023 50.98884 18019 ft 386 kts 65°
2026-05-08 11:12 53.91085 51.03044 18527 ft 389 kts 65°
2026-05-08 11:12 53.92166 51.07268 18996 ft 392 kts 66°
2026-05-08 11:12 53.93253 51.11526 19498 ft 394 kts 66°
2026-05-08 11:12 53.94348 51.15821 19986 ft 397 kts 66°
2026-05-08 11:13 53.95444 51.20137 20480 ft 400 kts 66°
2026-05-08 11:13 53.96509 51.24344 20923 ft 402 kts 66°
2026-05-08 11:13 53.97615 51.28720 21364 ft 404 kts 66°
2026-05-08 11:13 53.98730 51.33137 21786 ft 407 kts 66°
2026-05-08 11:14 53.99855 51.37577 22214 ft 410 kts 65°
2026-05-08 11:14 54.01221 51.41840 22642 ft 412 kts 56°
2026-05-08 11:14 54.02958 51.45737 23026 ft 415 kts 51°
2026-05-08 11:14 54.04766 51.49585 23421 ft 417 kts 51°
2026-05-08 11:15 54.06528 51.53340 23744 ft 420 kts 51°
2026-05-08 11:15 54.08349 51.57237 24047 ft 422 kts 51°
2026-05-08 11:15 54.10177 51.61170 24369 ft 424 kts 52°
2026-05-08 11:15 54.11987 51.65079 24681 ft 426 kts 52°
2026-05-08 11:16 54.13829 51.69060 24982 ft 428 kts 52°
2026-05-08 11:16 54.15682 51.73071 25282 ft 430 kts 52°
2026-05-08 11:16 54.17536 51.77097 25571 ft 433 kts 52°
2026-05-08 11:16 54.19329 51.80989 25860 ft 435 kts 52°
2026-05-08 11:17 54.21207 51.85064 26134 ft 437 kts 52°
2026-05-08 11:17 54.23089 51.89153 26405 ft 439 kts 52°
2026-05-08 11:17 54.24983 51.93271 26680 ft 441 kts 52°
2026-05-08 11:17 54.26240 51.96008 26858 ft 442 kts 52°
2026-05-08 11:18 54.28765 52.01517 27207 ft 445 kts 52°
2026-05-08 11:18 54.30674 52.05691 27452 ft 446 kts 52°
2026-05-08 11:18 54.32532 52.09758 27690 ft 448 kts 52°
2026-05-08 11:18 54.34454 52.13975 27938 ft 450 kts 52°
2026-05-08 11:19 54.35736 52.16793 28078 ft 451 kts 52°
2026-05-08 11:19 54.37668 52.21049 28316 ft 453 kts 52°
2026-05-08 11:19 54.39604 52.25329 28531 ft 454 kts 52°
2026-05-08 11:19 54.41543 52.29621 28731 ft 456 kts 52°
2026-05-08 11:20 54.43482 52.33927 28996 ft 456 kts 52°
2026-05-08 11:20 54.45413 52.38232 29313 ft 455 kts 52°
2026-05-08 11:20 54.47289 52.42420 29601 ft 454 kts 52°
2026-05-08 11:20 54.49214 52.46723 29903 ft 454 kts 52°
2026-05-08 11:21 54.51143 52.51034 30156 ft 453 kts 52°
2026-05-08 11:21 54.53065 52.55335 30404 ft 453 kts 52°
2026-05-08 11:21 54.54977 52.59623 30639 ft 453 kts 52°
2026-05-08 11:21 54.56871 52.63878 30879 ft 452 kts 52°
2026-05-08 11:22 54.58786 52.68194 31119 ft 452 kts 52°
2026-05-08 11:22 54.60641 52.72383 31351 ft 452 kts 52°
2026-05-08 11:22 54.62474 52.76785 31596 ft 451 kts 58°
2026-05-08 11:22 54.63917 52.81566 31834 ft 451 kts 68°
2026-05-08 11:23 54.64926 52.86706 32070 ft 450 kts 76°
2026-05-08 11:23 54.65649 52.91979 32304 ft 450 kts 77°
2026-05-08 11:23 54.66369 52.97231 32547 ft 450 kts 77°
2026-05-08 11:23 54.67093 53.02498 32789 ft 450 kts 77°
2026-05-08 11:24 54.67780 53.07516 33009 ft 449 kts 77°
2026-05-08 11:24 54.68497 53.12770 33251 ft 449 kts 77°
2026-05-08 11:24 54.69208 53.18030 33515 ft 448 kts 77°
2026-05-08 11:24 54.69915 53.23283 33733 ft 448 kts 77°
2026-05-08 11:25 54.70619 53.28536 33967 ft 447 kts 77°
2026-05-08 11:25 54.71320 53.33783 34147 ft 448 kts 77°
2026-05-08 11:25 54.72020 53.39036 34324 ft 448 kts 77°
2026-05-08 11:25 54.72696 53.44133 34483 ft 449 kts 78°
2026-05-08 11:26 54.73393 53.49403 34645 ft 450 kts 77°
2026-05-08 11:26 54.74080 53.54616 34808 ft 450 kts 78°
2026-05-08 11:26 54.74777 53.59922 34887 ft 453 kts 78°
2026-05-08 11:27 54.76178 53.70642 34904 ft 460 kts 78°
2026-05-08 11:27 54.77566 53.81349 34892 ft 466 kts 78°
2026-05-08 11:28 54.78988 53.92367 34898 ft 469 kts 78°
2026-05-08 11:28 54.80392 54.03412 34891 ft 469 kts 78°
2026-05-08 11:29 54.81793 54.14479 34892 ft 469 kts 78°
2026-05-08 11:29 54.83173 54.25357 34887 ft 469 kts 78°
2026-05-08 11:30 54.84558 54.36421 34891 ft 470 kts 78°
2026-05-08 11:30 54.85920 54.47455 34890 ft 470 kts 78°
2026-05-08 11:31 54.87258 54.58391 34891 ft 470 kts 78°
2026-05-08 11:31 54.88611 54.69522 34888 ft 470 kts 78°
2026-05-08 11:32 54.89960 54.80652 34887 ft 470 kts 79°
2026-05-08 11:32 54.91290 54.91710 34887 ft 470 kts 79°
2026-05-08 11:33 54.92588 55.02700 34883 ft 471 kts 79°
2026-05-08 11:33 54.93904 55.13853 34883 ft 471 kts 79°
2026-05-08 11:34 54.95217 55.25024 34886 ft 471 kts 79°
2026-05-08 11:34 54.96494 55.36029 34882 ft 471 kts 79°
2026-05-08 11:35 54.97768 55.47102 34883 ft 470 kts 79°
2026-05-08 11:35 54.99045 55.58318 34875 ft 470 kts 79°
2026-05-08 11:36 55.00308 55.69513 34872 ft 471 kts 79°
2026-05-08 11:36 55.01538 55.80511 34867 ft 471 kts 79°
2026-05-08 11:37 55.02790 55.91715 34869 ft 471 kts 79°
2026-05-08 11:37 55.04033 56.02944 34864 ft 471 kts 79°
2026-05-08 11:38 55.05236 56.14023 34865 ft 472 kts 80°
2026-05-08 11:38 55.06441 56.25200 34864 ft 472 kts 80°
2026-05-08 11:39 55.07655 56.36470 34865 ft 472 kts 80°
2026-05-08 11:39 55.08848 56.47735 34867 ft 472 kts 80°
2026-05-08 11:40 55.10013 56.58791 34871 ft 472 kts 80°
2026-05-08 11:40 55.11197 56.70071 34873 ft 472 kts 80°
2026-05-08 11:41 55.12367 56.81376 34869 ft 472 kts 80°
2026-05-08 11:41 55.13522 56.92671 34872 ft 472 kts 80°
2026-05-08 11:42 55.14645 57.03745 34876 ft 472 kts 80°
2026-05-08 11:42 55.15787 57.15039 34870 ft 471 kts 81°
2026-05-08 11:43 55.16919 57.26343 34873 ft 471 kts 81°
2026-05-08 11:43 55.18005 57.37416 34873 ft 471 kts 81°
2026-05-08 11:44 55.19111 57.48744 34870 ft 471 kts 81°
2026-05-08 11:44 55.20201 57.59974 34867 ft 471 kts 81°
2026-05-08 11:45 55.21288 57.71306 34868 ft 471 kts 81°
2026-05-08 11:45 55.22344 57.82453 34869 ft 471 kts 81°
2026-05-08 11:46 55.23412 57.93791 34868 ft 471 kts 81°
2026-05-08 11:46 55.24463 58.05047 34867 ft 471 kts 81°
2026-05-08 11:47 55.25487 58.16219 34864 ft 471 kts 81°
2026-05-08 11:47 55.26521 58.27579 34867 ft 471 kts 81°
2026-05-08 11:48 55.27561 58.38927 34865 ft 471 kts 81°
2026-05-08 11:48 55.28591 58.50211 34867 ft 470 kts 81°
2026-05-08 11:49 55.29589 58.61389 34865 ft 470 kts 82°
2026-05-08 11:49 55.30578 58.72736 34870 ft 470 kts 82°
2026-05-08 11:50 55.31566 58.84104 34871 ft 470 kts 82°
2026-05-08 11:50 55.32530 58.95294 34873 ft 471 kts 82°
2026-05-08 11:51 55.33492 59.06620 34872 ft 471 kts 82°
2026-05-08 11:51 55.34453 59.18016 34876 ft 471 kts 82°
2026-05-08 11:52 55.35403 59.29413 34874 ft 471 kts 82°
2026-05-08 11:52 55.36322 59.40641 34875 ft 470 kts 82°
2026-05-08 11:53 55.37243 59.52026 34878 ft 471 kts 82°
2026-05-08 11:53 55.38160 59.63431 34878 ft 471 kts 83°
2026-05-08 11:54 55.39050 59.74669 34877 ft 471 kts 83°
2026-05-08 11:54 55.39676 59.86143 34882 ft 470 kts 87°
2026-05-08 11:55 55.39922 59.97637 34887 ft 470 kts 89°
2026-05-08 11:55 55.40113 60.09067 34889 ft 471 kts 89°
2026-05-08 11:56 55.40391 60.20414 34902 ft 471 kts 88°
2026-05-08 11:56 55.40729 60.31925 34894 ft 471 kts 88°
2026-05-08 11:57 55.41049 60.43443 34900 ft 471 kts 88°
2026-05-08 11:57 55.41334 60.54728 34898 ft 471 kts 88°
2026-05-08 11:58 55.41603 60.66265 34899 ft 471 kts 88°
2026-05-08 11:58 55.41860 60.77796 34901 ft 471 kts 88°
2026-05-08 11:59 55.42522 60.89263 34903 ft 472 kts 77°
2026-05-08 11:59 55.43235 60.94633 34902 ft 472 kts 77°
2026-05-08 11:59 55.44698 61.05715 34887 ft 459 kts 77°
2026-05-08 12:00 55.46127 61.16649 34888 ft 457 kts 78°
2026-05-08 12:00 55.47538 61.27563 34889 ft 457 kts 78°
2026-05-08 12:01 55.48923 61.38340 34887 ft 457 kts 78°
2026-05-08 12:01 55.50316 61.49278 34889 ft 457 kts 78°
2026-05-08 12:02 55.51701 61.60212 34890 ft 457 kts 78°
2026-05-08 12:02 55.53075 61.71182 34885 ft 457 kts 78°
2026-05-08 12:03 55.54416 61.81986 34882 ft 457 kts 78°
2026-05-08 12:03 55.55767 61.92915 34877 ft 457 kts 78°
2026-05-08 12:04 55.57123 62.03917 34873 ft 458 kts 78°
2026-05-08 12:04 55.58443 62.14754 34877 ft 458 kts 78°
2026-05-08 12:05 55.59763 62.25746 34878 ft 458 kts 79°
2026-05-08 12:05 55.60854 62.34944 34877 ft 458 kts 79°
2026-05-08 12:06 55.62375 62.47775 34875 ft 459 kts 79°
2026-05-08 12:06 55.63442 62.56830 34874 ft 459 kts 79°
2026-05-08 12:07 55.64739 62.67920 34874 ft 459 kts 79°
2026-05-08 12:07 55.66021 62.79020 34870 ft 460 kts 79°
2026-05-08 12:08 55.67272 62.89923 34867 ft 460 kts 79°
2026-05-08 12:08 55.68546 63.01043 34870 ft 460 kts 79°
2026-05-08 12:09 55.69812 63.12194 34874 ft 461 kts 79°
2026-05-08 12:09 55.71073 63.23353 34876 ft 461 kts 79°
2026-05-08 12:10 55.72298 63.34383 34877 ft 462 kts 79°
2026-05-08 12:10 55.73520 63.45491 34876 ft 462 kts 79°
2026-05-08 12:11 55.74749 63.56718 34874 ft 462 kts 80°
2026-05-08 12:11 55.75945 63.67763 34877 ft 463 kts 80°
2026-05-08 12:12 55.76845 63.79061 34875 ft 461 kts 90°
2026-05-08 12:12 55.76512 63.90433 34881 ft 461 kts 95°
2026-05-08 12:13 55.76090 64.01727 34874 ft 461 kts 95°
2026-05-08 12:13 55.75665 64.12939 34884 ft 462 kts 95°
2026-05-08 12:14 55.75220 64.24329 34883 ft 462 kts 95°
2026-05-08 12:14 55.74765 64.35711 34882 ft 462 kts 95°
2026-05-08 12:15 55.74302 64.47097 34882 ft 462 kts 95°
2026-05-08 12:15 55.73818 64.58301 34895 ft 463 kts 96°
2026-05-08 12:16 55.73327 64.69630 34891 ft 463 kts 96°
2026-05-08 12:16 55.72837 64.81014 34888 ft 463 kts 96°
2026-05-08 12:17 55.72343 64.92261 34889 ft 463 kts 96°
2026-05-08 12:17 55.71824 65.03676 34890 ft 464 kts 96°
2026-05-08 12:18 55.71301 65.15025 34891 ft 464 kts 96°
2026-05-08 12:18 55.70765 65.26437 34900 ft 464 kts 96°
2026-05-08 12:19 55.70224 65.37668 34886 ft 465 kts 96°
2026-05-08 12:19 55.69661 65.49095 34891 ft 465 kts 96°
2026-05-08 12:20 55.69095 65.60447 34890 ft 465 kts 97°
2026-05-08 12:20 55.68523 65.71710 34888 ft 466 kts 97°
2026-05-08 12:21 55.67932 65.83145 34890 ft 466 kts 97°
2026-05-08 12:21 55.67321 65.94587 34893 ft 466 kts 97°
2026-05-08 12:22 55.66703 66.06041 34894 ft 466 kts 97°
2026-05-08 12:22 55.66096 66.17271 34893 ft 466 kts 97°
2026-05-08 12:23 55.65463 66.28630 34897 ft 466 kts 98°
2026-05-08 12:23 55.64812 66.40067 34900 ft 466 kts 98°
2026-05-08 12:24 55.64167 66.51327 34898 ft 467 kts 98°
2026-05-08 12:24 55.63510 66.62746 34898 ft 467 kts 98°
2026-05-08 12:25 55.62833 66.74186 34896 ft 467 kts 98°
2026-05-08 12:25 55.62146 66.85619 34894 ft 467 kts 98°
2026-05-08 12:26 55.61460 66.96860 34892 ft 467 kts 98°
2026-05-08 12:26 55.60756 67.08230 34894 ft 467 kts 99°
2026-05-08 12:27 55.60042 67.19670 34892 ft 468 kts 99°
2026-05-08 12:27 55.59321 67.30937 34892 ft 468 kts 99°
2026-05-08 12:28 55.58575 67.42396 34888 ft 469 kts 99°
2026-05-08 12:28 55.57814 67.53863 34886 ft 469 kts 99°
2026-05-08 12:29 55.57052 67.65234 34882 ft 469 kts 99°
2026-05-08 12:29 55.56291 67.76539 34879 ft 470 kts 99°
2026-05-08 12:30 55.55508 67.88022 34878 ft 470 kts 99°
2026-05-08 12:30 55.54713 67.99428 34879 ft 471 kts 98°
2026-05-08 12:31 55.54701 68.10808 34872 ft 474 kts 90°
2026-05-08 12:31 55.54929 68.22440 34868 ft 474 kts 90°
2026-05-08 12:32 55.55146 68.34110 34868 ft 475 kts 90°
2026-05-08 12:32 55.55352 68.45772 34864 ft 475 kts 90°
2026-05-08 12:33 55.55539 68.57267 34864 ft 475 kts 90°
2026-05-08 12:33 55.55720 68.68947 34857 ft 476 kts 90°
2026-05-08 12:34 55.55885 68.80566 34859 ft 476 kts 90°
2026-05-08 12:34 55.56036 68.92114 34856 ft 476 kts 91°
2026-05-08 12:35 55.56184 69.03828 34855 ft 477 kts 91°
2026-05-08 12:35 55.56320 69.15563 34857 ft 477 kts 91°
2026-05-08 12:36 55.56508 69.27196 34855 ft 478 kts 89°
2026-05-08 12:36 55.56918 69.38745 34855 ft 479 kts 88°
2026-05-08 12:37 55.57379 69.50503 34855 ft 479 kts 88°
2026-05-08 12:37 55.57769 69.62267 34855 ft 480 kts 89°
2026-05-08 12:38 55.58096 69.73827 34858 ft 480 kts 89°
2026-05-08 12:38 55.58414 69.85631 34860 ft 481 kts 89°
2026-05-08 12:39 55.58742 69.97459 34865 ft 482 kts 89°
2026-05-08 12:39 55.59060 70.09224 34867 ft 483 kts 89°
2026-05-08 12:40 55.59373 70.20921 34874 ft 483 kts 89°
2026-05-08 12:40 55.59677 70.32803 34873 ft 484 kts 89°
2026-05-08 12:41 55.59952 70.44706 34881 ft 485 kts 89°
2026-05-08 12:41 55.60219 70.56390 34880 ft 485 kts 89°
2026-05-08 12:42 55.60489 70.68366 34883 ft 485 kts 89°
2026-05-08 12:42 55.60740 70.80306 34883 ft 485 kts 89°
2026-05-08 12:43 55.60970 70.92184 34883 ft 486 kts 89°
2026-05-08 12:43 55.61196 71.03915 34885 ft 486 kts 89°
2026-05-08 12:44 55.61418 71.15875 34886 ft 487 kts 89°
2026-05-08 12:44 55.61113 71.27795 34883 ft 485 kts 99°
2026-05-08 12:45 55.60147 71.39620 34883 ft 485 kts 100°
2026-05-08 12:45 55.59178 71.51199 34884 ft 486 kts 100°
2026-05-08 12:46 55.58194 71.63015 34883 ft 486 kts 99°
2026-05-08 12:46 55.57207 71.74839 34881 ft 486 kts 99°
2026-05-08 12:47 55.56220 71.86526 34881 ft 487 kts 100°
2026-05-08 12:47 55.55203 71.98373 34882 ft 488 kts 100°
2026-05-08 12:48 55.54177 72.10145 34884 ft 488 kts 100°
2026-05-08 12:48 55.53128 72.22007 34890 ft 489 kts 100°
2026-05-08 12:49 55.52085 72.33667 34890 ft 489 kts 100°
2026-05-08 12:49 55.51025 72.45547 34893 ft 489 kts 100°
2026-05-08 12:50 55.49952 72.57411 34894 ft 490 kts 100°
2026-05-08 12:50 55.48880 72.69025 34888 ft 490 kts 100°
2026-05-08 12:51 55.47205 72.86830 34892 ft 490 kts 100°
2026-05-08 12:52 55.46271 72.96690 34890 ft 491 kts 100°
2026-05-08 12:52 55.44412 73.16188 34892 ft 491 kts 100°
2026-05-08 12:53 55.43266 73.28039 34894 ft 491 kts 101°
2026-05-08 12:53 55.42296 73.37907 34893 ft 491 kts 101°
2026-05-08 12:54 55.41140 73.49587 34893 ft 491 kts 101°
2026-05-08 12:54 55.39960 73.61432 34891 ft 491 kts 101°
2026-05-08 12:55 55.38762 73.73276 34891 ft 491 kts 101°
2026-05-08 12:55 55.37548 73.85117 34886 ft 491 kts 101°
2026-05-08 12:56 55.36356 73.96704 34888 ft 492 kts 101°
2026-05-08 12:56 55.35129 74.08541 34891 ft 492 kts 101°
2026-05-08 12:57 55.33892 74.20360 34892 ft 492 kts 101°
2026-05-08 12:57 55.32660 74.32008 34888 ft 492 kts 101°
2026-05-08 12:58 55.31410 74.43756 34889 ft 492 kts 101°
2026-05-08 12:58 55.30143 74.55561 34894 ft 493 kts 101°
2026-05-08 12:59 55.28854 74.67381 34903 ft 493 kts 102°
2026-05-08 12:59 55.27571 74.79008 34911 ft 493 kts 102°
2026-05-08 13:00 55.26262 74.90814 34912 ft 493 kts 102°
2026-05-08 13:00 55.24938 75.02624 34917 ft 493 kts 102°
2026-05-08 13:01 55.23616 75.14356 34912 ft 493 kts 102°
2026-05-08 13:01 55.22297 75.26013 34912 ft 493 kts 102°
2026-05-08 13:02 55.20948 75.37704 34914 ft 493 kts 102°
2026-05-08 13:02 55.19567 75.49489 34913 ft 493 kts 102°
2026-05-08 13:03 55.18208 75.61046 34913 ft 493 kts 102°
2026-05-08 13:03 55.16831 75.72798 34912 ft 493 kts 102°
2026-05-08 13:04 55.15456 75.84472 34905 ft 493 kts 102°
2026-05-08 13:04 55.14054 75.96210 34912 ft 493 kts 103°
2026-05-08 13:05 55.12651 76.07767 34915 ft 493 kts 103°
2026-05-08 13:05 55.11219 76.19468 34919 ft 493 kts 103°
2026-05-08 13:06 55.09770 76.31186 34915 ft 493 kts 103°
2026-05-08 13:06 55.08346 76.42649 34922 ft 493 kts 103°
2026-05-08 13:07 55.06882 76.54351 34924 ft 493 kts 103°
2026-05-08 13:07 55.05410 76.66036 34925 ft 493 kts 103°
2026-05-08 13:08 55.03928 76.77737 34922 ft 493 kts 103°
2026-05-08 13:08 55.02449 76.89243 34925 ft 494 kts 104°
2026-05-08 13:09 55.00932 77.00936 34929 ft 494 kts 104°
2026-05-08 13:09 54.99418 77.12531 34933 ft 495 kts 104°
2026-05-08 13:10 54.97901 77.24020 34937 ft 495 kts 104°
2026-05-08 13:10 54.96359 77.35698 34939 ft 495 kts 104°
2026-05-08 13:11 54.94804 77.47378 34937 ft 495 kts 104°
2026-05-08 13:11 54.93242 77.58962 34940 ft 494 kts 104°
2026-05-08 13:12 54.92100 77.70576 34939 ft 495 kts 98°
2026-05-08 13:12 54.91154 77.82457 34936 ft 495 kts 98°
2026-05-08 13:13 54.90182 77.94331 34934 ft 495 kts 99°
2026-05-08 13:13 54.89216 78.06011 34934 ft 496 kts 99°
2026-05-08 13:14 54.88226 78.17863 34933 ft 496 kts 99°
2026-05-08 13:14 54.87214 78.29714 34932 ft 496 kts 99°
2026-05-08 13:15 54.86202 78.41489 34931 ft 496 kts 99°
2026-05-08 13:15 54.85189 78.53185 34930 ft 497 kts 99°
2026-05-08 13:16 54.84153 78.65035 34928 ft 497 kts 99°
2026-05-08 13:16 54.83096 78.76905 34928 ft 497 kts 99°
2026-05-08 13:17 54.82045 78.88532 34927 ft 497 kts 99°
2026-05-08 13:17 54.80962 79.00389 34927 ft 498 kts 99°
2026-05-08 13:18 54.79878 79.12237 34927 ft 498 kts 99°
2026-05-08 13:18 54.78786 79.24079 34927 ft 498 kts 100°
2026-05-08 13:19 54.77686 79.35738 34929 ft 498 kts 100°
2026-05-08 13:19 54.76556 79.47596 34931 ft 499 kts 100°
2026-05-08 13:20 54.75416 79.59451 34934 ft 499 kts 100°
2026-05-08 13:20 54.74287 79.71129 34937 ft 499 kts 100°
2026-05-08 13:21 54.73128 79.82979 34934 ft 499 kts 100°
2026-05-08 13:21 54.71950 79.94839 34936 ft 500 kts 101°
2026-05-08 13:22 54.70770 80.06608 34937 ft 500 kts 101°
2026-05-08 13:22 54.69586 80.18287 34938 ft 500 kts 101°
2026-05-08 13:23 54.68377 80.30158 34939 ft 500 kts 101°
2026-05-08 13:23 54.67159 80.41994 34943 ft 500 kts 101°
2026-05-08 13:24 54.65938 80.53667 34943 ft 501 kts 101°
2026-05-08 13:24 54.64691 80.65440 34945 ft 501 kts 101°
2026-05-08 13:25 54.63429 80.77278 34947 ft 501 kts 101°
2026-05-08 13:25 54.62157 80.89103 34944 ft 501 kts 101°
2026-05-08 13:26 54.60892 81.00752 34945 ft 501 kts 101°
2026-05-08 13:26 54.59598 81.12578 34949 ft 501 kts 101°
2026-05-08 13:27 54.58297 81.24393 34950 ft 502 kts 101°
2026-05-08 13:27 54.57003 81.36027 34948 ft 502 kts 101°
2026-05-08 13:28 54.55678 81.47842 34948 ft 502 kts 101°
2026-05-08 13:28 54.54347 81.59588 34944 ft 502 kts 101°
2026-05-08 13:29 54.52996 81.71409 34946 ft 502 kts 102°
2026-05-08 13:29 54.51650 81.83049 34946 ft 503 kts 102°
2026-05-08 13:30 54.50281 81.94788 34951 ft 503 kts 102°
2026-05-08 13:30 54.48886 82.06578 34949 ft 503 kts 102°
2026-05-08 13:31 54.47481 82.18390 34951 ft 503 kts 102°
2026-05-08 13:31 54.46146 82.29964 34952 ft 503 kts 101°
2026-05-08 13:32 54.44815 82.41774 34954 ft 503 kts 101°
2026-05-08 13:32 54.43464 82.53593 34954 ft 504 kts 101°
2026-05-08 13:33 54.42103 82.65237 34956 ft 504 kts 101°
2026-05-08 13:33 54.40703 82.77044 34957 ft 504 kts 101°
2026-05-08 13:34 54.39296 82.88826 34952 ft 504 kts 101°
2026-05-08 13:34 54.37883 83.00529 34957 ft 504 kts 102°
2026-05-08 13:35 54.36428 83.12122 34959 ft 504 kts 102°
2026-05-08 13:35 54.34931 83.23868 34953 ft 504 kts 102°
2026-05-08 13:36 54.33431 83.35619 34957 ft 505 kts 102°
2026-05-08 13:36 54.31951 83.47196 34958 ft 505 kts 102°
2026-05-08 13:37 54.30433 83.58952 34960 ft 505 kts 102°
2026-05-08 13:37 54.28906 83.70693 34958 ft 505 kts 102°
2026-05-08 13:38 54.27360 83.82452 34962 ft 506 kts 102°
2026-05-08 13:38 54.25843 83.93912 34961 ft 506 kts 102°
2026-05-08 13:39 54.24273 84.05675 34965 ft 506 kts 102°
2026-05-08 13:39 54.22957 84.15444 34965 ft 507 kts 102°
2026-05-08 13:40 54.21394 84.27005 34968 ft 507 kts 102°
2026-05-08 13:40 54.19791 84.38760 34970 ft 507 kts 102°
2026-05-08 13:41 54.18184 84.50430 34973 ft 507 kts 102°
2026-05-08 13:41 54.16560 84.62170 34972 ft 508 kts 102°
2026-05-08 13:42 54.14959 84.73698 34975 ft 508 kts 102°
2026-05-08 13:42 54.13309 84.85415 34983 ft 508 kts 102°
2026-05-08 13:43 54.11654 84.97056 34985 ft 508 kts 102°
2026-05-08 13:43 54.09996 85.08570 34985 ft 508 kts 103°
2026-05-08 13:44 54.08224 85.20229 34995 ft 508 kts 103°
2026-05-08 13:44 54.06391 85.31859 34996 ft 508 kts 104°
2026-05-08 13:45 54.04568 85.43476 35000 ft 508 kts 103°
2026-05-08 13:45 54.02777 85.54956 35005 ft 508 kts 103°
2026-05-08 13:46 54.00953 85.66556 35005 ft 508 kts 104°
2026-05-08 13:46 53.99121 85.78073 35011 ft 507 kts 104°
2026-05-08 13:47 53.97306 85.89429 35009 ft 507 kts 104°
2026-05-08 13:47 53.95446 86.00968 35015 ft 507 kts 104°
2026-05-08 13:48 53.93565 86.12533 35011 ft 507 kts 104°
2026-05-08 13:48 53.91697 86.23979 35009 ft 507 kts 104°
2026-05-08 13:49 53.89838 86.35325 35012 ft 506 kts 104°
2026-05-08 13:49 53.87936 86.46838 35015 ft 506 kts 104°
2026-05-08 13:50 53.86023 86.58316 35014 ft 506 kts 104°
2026-05-08 13:50 53.84100 86.69775 35017 ft 506 kts 104°
2026-05-08 13:51 53.82192 86.81063 35012 ft 506 kts 104°
2026-05-08 13:51 53.81093 86.92667 35015 ft 500 kts 88°
2026-05-08 13:52 53.81132 87.04400 35016 ft 499 kts 86°
2026-05-08 13:52 53.81152 87.15923 35018 ft 499 kts 86°
2026-05-08 13:53 53.81160 87.27661 35023 ft 499 kts 87°
2026-05-08 13:53 53.81165 87.39423 35027 ft 498 kts 87°
2026-05-08 13:54 53.81160 87.51173 35029 ft 498 kts 87°
2026-05-08 13:54 53.81140 87.62620 35029 ft 498 kts 87°
2026-05-08 13:55 53.81119 87.74329 35034 ft 497 kts 87°
2026-05-08 13:56 53.81077 87.91862 35036 ft 497 kts 87°
2026-05-08 13:56 53.81030 88.03417 35033 ft 497 kts 88°
2026-05-08 13:57 53.80978 88.15123 35036 ft 497 kts 88°
2026-05-08 13:57 53.80912 88.26799 35036 ft 496 kts 88°
2026-05-08 13:58 53.80824 88.38257 35038 ft 496 kts 88°
2026-05-08 13:58 53.80724 88.49930 35038 ft 496 kts 88°
2026-05-08 13:59 53.80619 88.61605 35043 ft 496 kts 88°
2026-05-08 13:59 53.80511 88.73269 35047 ft 495 kts 88°
2026-05-08 14:00 53.80384 88.84745 35046 ft 495 kts 89°
2026-05-08 14:00 53.80312 88.90574 34858 ft 495 kts 89°
2026-05-08 14:00 53.80232 88.96404 34616 ft 494 kts 89°
2026-05-08 14:00 53.80146 89.02218 34378 ft 494 kts 89°
2026-05-08 14:01 53.80056 89.08006 34030 ft 495 kts 89°
2026-05-08 14:01 53.79967 89.13819 32742 ft 503 kts 89°
2026-05-08 14:01 53.79883 89.19539 31718 ft 505 kts 89°
2026-05-08 14:01 53.79798 89.25499 30625 ft 507 kts 90°
2026-05-08 14:02 53.79709 89.31488 29235 ft 512 kts 90°
2026-05-08 14:02 53.79614 89.37503 28250 ft 507 kts 90°
2026-05-08 14:02 53.79514 89.43402 27566 ft 498 kts 90°
2026-05-08 14:02 53.79409 89.49240 26767 ft 493 kts 91°
2026-05-08 14:03 53.79302 89.55002 25998 ft 488 kts 91°
2026-05-08 14:03 53.79196 89.60526 25272 ft 483 kts 91°
2026-05-08 14:03 53.79083 89.66184 24526 ft 479 kts 91°
2026-05-08 14:03 53.78967 89.71796 23798 ft 475 kts 91°
2026-05-08 14:04 53.78851 89.77368 23003 ft 472 kts 91°
2026-05-08 14:04 53.78738 89.82884 22319 ft 466 kts 91°
2026-05-08 14:04 53.78626 89.88318 21670 ft 460 kts 91°
2026-05-08 14:04 53.78515 89.93618 21059 ft 455 kts 91°
2026-05-08 14:05 53.78403 89.98774 20478 ft 449 kts 91°
2026-05-08 14:05 53.78283 90.04029 19902 ft 444 kts 91°
2026-05-08 14:05 53.78158 90.09224 19343 ft 439 kts 91°
2026-05-08 14:05 53.78035 90.14352 18793 ft 434 kts 91°
2026-05-08 14:06 53.77910 90.19420 18281 ft 429 kts 91°
2026-05-08 14:06 53.77773 90.24433 17713 ft 425 kts 91°
2026-05-08 14:06 53.77624 90.29396 17183 ft 420 kts 91°
2026-05-08 14:06 53.77476 90.34164 16677 ft 416 kts 92°
2026-05-08 14:07 53.77325 90.39019 16136 ft 412 kts 92°
2026-05-08 14:07 53.77173 90.43848 15600 ft 408 kts 92°
2026-05-08 14:07 53.77023 90.48558 15052 ft 405 kts 92°
2026-05-08 14:07 53.76870 90.53313 14501 ft 402 kts 92°
2026-05-08 14:08 53.76785 90.58018 13934 ft 399 kts 86°
2026-05-08 14:08 53.77167 90.62636 13319 ft 390 kts 74°
2026-05-08 14:08 53.77996 90.66705 12793 ft 368 kts 64°
2026-05-08 14:08 53.79182 90.70431 12264 ft 349 kts 58°
2026-05-08 14:09 53.80375 90.73917 11764 ft 340 kts 58°
2026-05-08 14:09 53.81536 90.77334 11245 ft 338 kts 59°
2026-05-08 14:09 53.82698 90.80764 10742 ft 334 kts 59°
2026-05-08 14:09 53.83822 90.84090 10470 ft 313 kts 59°
2026-05-08 14:10 53.84873 90.87207 10162 ft 297 kts 59°
2026-05-08 14:10 53.85864 90.90143 9997 ft 295 kts 59°
2026-05-08 14:10 53.86879 90.93155 9875 ft 292 kts 60°
2026-05-08 14:10 53.87887 90.96148 9750 ft 292 kts 60°
2026-05-08 14:11 53.88894 90.99140 9635 ft 292 kts 59°
2026-05-08 14:11 53.89903 91.02130 9512 ft 291 kts 59°
2026-05-08 14:11 53.90901 91.05117 9377 ft 291 kts 62°
2026-05-08 14:11 53.91623 91.08257 9099 ft 289 kts 75°
2026-05-08 14:12 53.92046 91.11465 8758 ft 286 kts 77°
2026-05-08 14:12 53.92472 91.14743 8398 ft 283 kts 76°
2026-05-08 14:12 53.92899 91.17994 8030 ft 281 kts 76°
2026-05-08 14:12 53.93319 91.21219 7687 ft 278 kts 76°
2026-05-08 14:13 53.93731 91.24395 7317 ft 271 kts 76°
2026-05-08 14:13 53.94126 91.27441 6975 ft 257 kts 76°
2026-05-08 14:13 53.94509 91.30390 6662 ft 255 kts 76°
2026-05-08 14:13 53.94875 91.33206 6337 ft 247 kts 77°
2026-05-08 14:14 53.95007 91.36102 6008 ft 247 kts 94°
2026-05-08 14:14 53.94592 91.38914 5681 ft 245 kts 113°
2026-05-08 14:14 53.93900 91.41451 5378 ft 235 kts 114°
2026-05-08 14:14 53.93223 91.43919 5081 ft 226 kts 114°
2026-05-08 14:15 53.92575 91.46288 4800 ft 217 kts 114°
2026-05-08 14:15 53.91944 91.48564 4520 ft 210 kts 120°
2026-05-08 14:15 53.90980 91.50212 4430 ft 195 kts 155°
2026-05-08 14:15 53.89743 91.50593 4272 ft 179 kts 189°
2026-05-08 14:16 53.88612 91.49918 3979 ft 169 kts 208°
2026-05-08 14:16 53.87556 91.49085 3633 ft 166 kts 207°
2026-05-08 14:16 53.86512 91.48268 3280 ft 164 kts 208°
2026-05-08 14:16 53.85504 91.47483 2927 ft 156 kts 208°
2026-05-08 14:17 53.84547 91.46739 2728 ft 145 kts 208°
2026-05-08 14:17 53.83647 91.46036 2681 ft 141 kts 208°
2026-05-08 14:17 53.82796 91.45372 2565 ft 139 kts 208°
2026-05-08 14:17 53.81921 91.44688 2403 ft 137 kts 208°
2026-05-08 14:18 53.81057 91.44014 2222 ft 136 kts 208°
2026-05-08 14:18 53.80199 91.43345 2028 ft 136 kts 207°
2026-05-08 14:18 53.79338 91.42674 1843 ft 136 kts 207°
2026-05-08 14:18 53.78485 91.42011 1652 ft 136 kts 206°
2026-05-08 14:19 53.77626 91.41346 1455 ft 135 kts 206°
2026-05-08 14:19 53.76803 91.40696 1283 ft 134 kts 205°
2026-05-08 14:19 53.75956 91.40036 1067 ft 134 kts 205°
2026-05-08 14:19 53.75112 91.39383 847 ft 132 kts 205°
2026-05-08 14:20 53.74345 91.38782 817 ft 103 kts 204°
2026-05-08 14:20 53.73851 91.38397 817 ft 53 kts 204°
2026-05-08 14:20 53.73663 91.38253 817 ft 15 kts 204°
2026-05-08 14:20 53.73550 91.38164 819 ft 21 kts 205°
2026-05-08 14:21 53.73421 91.38066 819 ft 21 kts 205°
2026-05-08 14:21 53.73289 91.37964 819 ft 22 kts 204°
2026-05-08 14:21 53.73180 91.37912 817 ft 15 kts 172°
2026-05-08 14:21 53.73106 91.37904 818 ft 9 kts 200°
2026-05-08 14:22 53.73096 91.37840 817 ft 7 kts 305°
2026-05-08 14:22 53.73132 91.37842 817 ft 6 kts 23°
2026-05-08 14:22 53.73193 91.37898 817 ft 14 kts 20°
2026-05-08 14:22 53.73299 91.37971 819 ft 20 kts 23°
2026-05-08 14:23 53.73444 91.38083 820 ft 25 kts 24°
2026-05-08 14:23 53.73604 91.38204 818 ft 26 kts 25°
2026-05-08 14:23 53.73775 91.38340 815 ft 28 kts 24°
2026-05-08 14:23 53.73959 91.38484 819 ft 29 kts 25°
2026-05-08 14:24 53.74125 91.38613 818 ft 20 kts 26°
2026-05-08 14:24 53.74218 91.38692 818 ft 16 kts 31°
2026-05-08 14:24 53.74318 91.38839 818 ft 21 kts 48°
2026-05-08 14:24 53.74387 91.38995 817 ft 10 kts 55°
2026-05-08 14:25 53.74420 91.39077 817 ft 4 kts 55°
2026-05-08 14:25 53.74421 91.39080 817 ft 0 kts 55°
2026-05-08 14:27 53.74425 91.39090 817 ft 5 kts 55°
2026-05-08 14:27 53.74469 91.39185 818 ft 16 kts 44°
2026-05-08 14:27 53.74574 91.39274 816 ft 15 kts 22°
2026-05-08 14:27 53.74669 91.39346 816 ft 16 kts 24°
2026-05-08 14:28 53.74770 91.39423 816 ft 15 kts 24°
2026-05-08 14:28 53.74859 91.39492 816 ft 13 kts 25°
2026-05-08 14:28 53.74931 91.39553 816 ft 8 kts 41°
2026-05-08 14:28 53.74928 91.39635 816 ft 7 kts 110°
2026-05-08 14:29 53.74942 91.39721 816 ft 11 kts 34°
2026-05-08 14:29 53.75016 91.39706 816 ft 12 kts 343°
2026-05-08 14:29 53.75063 91.39679 816 ft 11 kts 340°
2026-05-08 14:29 53.75133 91.39661 816 ft 10 kts 25°
2026-05-08 14:30 53.75160 91.39743 816 ft 7 kts 71°
2026-05-08 14:30 53.75155 91.39811 816 ft 4 kts 133°
2026-05-08 14:30 53.75131 91.39831 816 ft 3 kts 159°
2026-05-08 14:30 53.75111 91.39843 816 ft 0 kts 161°
2026-05-08 14:31 53.75103 91.39848 816 ft 0 kts 160°
2026-05-08 14:31 53.75098 91.39851 816 ft 0 kts 161°